Regional Weather Roundup
Issued by NWS Wilmington, NC

Home | Current Version | Previous Version | Text Only | Print | Product List | Glossary On
Versions: 1 2 3 4 5 6 7 8 9 10 11 12 13 14 15 16 17 18 19 20 21 22 23 24 25 26 27 28 29 30 31 32 33 34 35 36 37 38 39 40 41 42 43 44 45 46 47 48 49 50
128
ASUS42 KILM 181413
RWRILM
RWRILM
REGIONAL HOURLY WEATHER ROUNDUP
NATIONAL WEATHER SERVICE WILMINGTON NC
900 AM EST MON DEC 18 2017

NOTE: "FAIR" INDICATES FEW OR NO CLOUDS BELOW 12,000 FEET WITH NO
SIGNIFICANT WEATHER AND/OR OBSTRUCTIONS TO VISIBILITY.

...............WFO WILMINGTON COUNTY WARNING AREA...............

......COASTAL NC AND SC COUNTIES......

CITY           SKY/WX    TMP DP  RH WIND       PRES   REMARKS
WILMINGTON     SUNNY     57  51  80 CALM      30.19R
N MYRTLE BEACH PTSUNNY   60  56  86 W3        30.17S
MYRTLE BEACH   PTSUNNY   60  56  86 W5        30.19

......INLAND NC AND SC COUNTIES.......

CITY           SKY/WX    TMP DP  RH WIND       PRES   REMARKS
LUMBERTON      CLOUDY    50  45  83 CALM      30.19R
ELIZABETHTOWN  NOT AVBL
WHITEVILLE     MOSUNNY   51  48  89 CALM      30.18R
FLORENCE       MOSUNNY   53  45  74 CALM      30.19R
DARLINGTON     MOSUNNY   49  43  80 CALM      30.20R
KINGSTREE      CLOUDY    55  50  82 CALM      30.19S
HARTSVILLE     FAIR      52  41  66 CALM      30.18R
BENNETTSVILLE  FAIR      50  45  81 CALM      30.19R
CONWAY         CLOUDY    55  54  94 CALM      30.19R
GEORGETOWN     CLOUDY    63  61  94 W5        30.19S
MARION         FAIR      52  46  82 CALM      30.19R

....................REST OF NORTH CAROLINA......................

.........EASTERN NC.........

CITY           SKY/WX    TMP DP  RH WIND       PRES   REMARKS
CAPE HATTERAS  CLOUDY    53  46  77 VRB3      30.18S
JACKSONVILLE   CLOUDY    54  47  77 S3        30.19S
MOREHEAD CITY  CLOUDY    57  46  66 CALM      30.18F
KENANSVILLE    CLOUDY    52  46  82 CALM      30.19R
NEW BERN       PTSUNNY   52  48  86 S3        30.19S
ELIZABETH CITY SUNNY     49  43  80 W7        30.17S

.........CENTRAL NC.........

CITY           SKY/WX    TMP DP  RH WIND       PRES   REMARKS
RALEIGH DURHAM CLOUDY    40  38  93 CALM      30.18R
ROCKY MOUNT    CLOUDY    42  41  96 CALM      30.18S
ROANOKE RAPIDS NOT AVBL
FAYETTEVILLE   PTSUNNY   53  42  66 CALM      30.18R
HOFFMAN        SUNNY     50  41  72 CALM      30.18S

.........WESTERN NC.........

CITY           SKY/WX    TMP DP  RH WIND       PRES   REMARKS
CHARLOTTE      PTSUNNY   51  41  68 NW3       30.18S
GREENSBORO     CLOUDY    40  37  89 CALM      30.16R FOG
HICKORY        NOT AVBL
BOONE          NOT AVBL
ASHEVILLE      NOT AVBL

.....................REST OF SOUTH CAROLINA.....................

.........EASTERN SC.........

CITY           SKY/WX    TMP DP  RH WIND       PRES   REMARKS
CHARLESTON     PTSUNNY   61  59  93 W7        30.20R
BEAUFORT MCAS  CLOUDY    61  61 100 SW8       30.21R
HILTON HEAD    CLOUDY    61  61 100 S7        30.22R

.........CENTRAL SC.........

CITY           SKY/WX    TMP DP  RH WIND       PRES   REMARKS
COLUMBIA       CLOUDY    56  44  64 CALM      30.19R
ORANGEBURG     CLOUDY    57  51  80 CALM      30.19S
SUMTER SHAW    CLOUDY    55  45  68 W6        30.17R

.........WESTERN SC.........

CITY           SKY/WX    TMP DP  RH WIND       PRES   REMARKS
GREENVILLE     NOT AVBL
ROCK HILL      SUNNY     47  40  76 CALM      30.18R
ANDERSON       CLOUDY    48  46  93 SW7       30.19R FOG
CLEMSON        NOT AVBL
GREENWOOD      SUNNY     47  44  90 SW3       30.21R


...................COASTAL AND OFFSHORE REPORTS..................

................LOCAL PIERS AND NC RESERVE................


STATION/POSITION TIME  SKY/WX   TEMP    WIND        PRES    VSBY
                                AIR SEA DIR/SP/G
                 (UTC)          (F)     (DEG/KT/KT) (MB)    (MI)
JOHNY MRCER PIER 1348            55 56   40/  3/  3 1022.1R
NC RESRV MASNBRO 1245            50        CALM     1021.0
OCEAN CREST PIER NOT AVBL
SPRINGMAID  PIER 1348                               1025.1R


................COASTAL AND OFFSHORE BUOYS................


STATION/POSITION TIME  SKY/WX   TEMP    WIND        PRES    VSBY
                                AIR SEA DIR/SP/G
                 (UTC)          (F)     (DEG/KT/KT) (MB)    (MI)
DIMNDSHOAL 41025 1400            61 72  290/ 10/ 12 1022.5
CAPE LOOKOUT     1400                   290/  2/  2 1022.4S
ONSLOW BAY 41036 NOT AVBL
ONSLOW BAY 41064 1308            60 63  330/  2/  4 1022.0R
ONSLOW BAY 41159 1330               63                N/A
WVE H/P(F/S)=  1/10

MASNBO INL 41110 1329               55                N/A
WVE H/P(F/S)=  1/11

WILM HARBR 41108 1330               58                N/A
WVE H/P(F/S)=  1/10

27SE WRITB 41037 1308            59 57  350/  2/  4 1021.9R
FRYING PAN 41013 1400            69 70  250/ 16/ 17 1021.8
SUNST NRSH 41024 1308            54      40/  2/  2 1021.5R
CAPRS NRSH 41029 1308            54 56  230/  8/ 10 1022.0R
EDISTO     41004 1400            70 73  240/ 14/ 16 1022.2


..........OFFSHORE BUOYS BEYOND 100 NM OFFSHORE...........
.....IN A TRIANGLE---HAT TO BERMUDA TO BAHAMAS TO HAT.....


STATION/POSITION TIME  SKY/WX   TEMP    WIND        PRES    VSBY
                                AIR SEA DIR/SP/G
                 (UTC)          (F)     (DEG/KT/KT) (MB)    (MI)
150E HAT   41001 NOT AVBL
W BERMUDA  41048 1400            70 74  240/ 14/ 16 1024.6
ATLANTIC S 41049 1350            72 77   30/ 10/ 14 1025.3R
WVE H/P(F/S)=  7/11 SWL H/P/D(F/S/D)=  7/330/11

E BAHAMAS  41046 1400            76 80   60/ 19/ 23 1023.3
NE BAHAMAS 41047 1350            70      60/  8/ 10 1025.7R
WVE H/P(F/S)=  4/ 8 SWL H/P/D(F/S/D)=  3/ 50/ 8

120E CANVRL41010 NOT AVBL

END




USA.gov is the U.S. government's official web portal to all federal, state and local government web resources and services.